Location: Bergen
(60.3910°N, 5.3250°E)
Time: 08:22:30
(UTC+02:00)

ISS - Pass Details

Date: 25 March 2019
Orbit: 408 x 410 km, 51.6° (Epoch: 26 April)

Event Time Altitude Azimuth Distance (km) Brightness Sun altitude
Rises 20:12:37 0° 213° (SSW) 2,333 0.2 -8.9°
Reaches altitude 10° 20:15:44 10° 181° (S) 1,474 -1.2 -9.3°
Maximum altitude 20:17:04 12° 157° (SSE) 1,359 -1.6 -9.5°
Enters shadow 20:17:57 11° 141° (SE) 1,410 -1.6 -9.6°
